Chicago Executive Airport (PWK)


Airport Diagram
Current Weather/Forecast (VFR Conditions)
METAR KPWK 140152Z 13005KT 10SM CLR 23/17 A3001 RMK AO2 SLP156 T02280167
TAF

All Charts
General
Chart Name Download
AIRPORT DIAGRAM
TAKEOFF MINIMUMS
ALTERNATE MINIMUMS
HOT SPOT
LAHSO

Departures
Chart Name Download
JORJO FIVE (RNAV)
MONKZ FIVE (RNAV)
MONKZ FIVE (RNAV), CONT.1
PAL-WAUKEE FIVE

Approaches
Chart Name Download
ILS OR LOC RWY 16
RNAV (GPS) RWY 16
VOR RWY 16